Regional Weather Roundup
Issued by NWS Little Rock, AR

Home | Current Version | Previous Version | Text Only | Print | Product List | Glossary Off
Versions: 1 2 3 4 5 6 7 8 9 10 11 12 13 14 15 16 17 18 19 20 21 22 23 24 25 26 27 28 29 30 31 32 33 34 35 36 37 38 39 40 41 42 43 44 45 46 47 48

000
ASUS44 KLZK 030705
RWRLZK

WEATHER ROUNDUP FOR ARKANSAS
NATIONAL WEATHER SERVICE LITTLE ROCK AR
100 AM CST TUE MAR 03 2015

NOTE: "FAIR" INDICATES FEW OR NO CLOUDS BELOW 12,000 FEET WITH NO
SIGNIFICANT WEATHER AND/OR OBSTRUCTIONS TO VISIBILITY.

ARZ001-003-010-029-030800-
NORTHWEST ARKANSAS

CITY           SKY/WX    TMP DP  RH WIND       PRES   REMARKS
FAYETTEVILLE   CLOUDY    37  35  92 S10       30.03F
FORT SMITH     CLOUDY    37  32  82 E8        30.12F
HARRISON       CLOUDY    35  32  88 SE17      30.05F WCI  25
BENTONVILLE    CLOUDY    37  32  81 S6        30.03F
ROGERS         CLOUDY    36  33  89 S6        30.03F
SILOAM SPGS    CLOUDY    37  28  70 S9        30.04F
HIGHFILL       CLOUDY    37  34  89 S10       30.02F
$$

ARZ004-005-016-030800-
NORTH CENTRAL ARKANSAS

CITY           SKY/WX    TMP DP  RH WIND       PRES   REMARKS
BATESVILLE     CLOUDY    34  25  69 S3        30.16F
FLIPPIN        CLOUDY    34  25  69 SE5       30.11F WCI  30
MTN HOME       CLOUDY    31  26  82 SE7       30.10F WCI  24
$$

ARZ040-041-030800-
WEST CENTRAL ARKANSAS

CITY           SKY/WX    TMP DP  RH WIND       PRES   REMARKS
MENA           CLOUDY    37  36  93 CALM      30.13F VSB 1/4
MOUNT IDA      FOG       35  34  96 CALM      30.11F VSB 1
$$

ARZ009-017-025-026-028-030800-
NORTHEAST ARKANSAS

CITY           SKY/WX    TMP DP  RH WIND       PRES   REMARKS
CORNING        CLOUDY    34  27  75 NE3       30.16F
JONESBORO      CLOUDY    34  26  72 E3        30.17F
NEWPORT        CLOUDY    33  30  89 CALM      30.18F
WALNUT RIDGE   CLOUDY    34  25  69 CALM      30.16F
BLYTHEVILLE    CLOUDY    35  32  88 CALM      30.17F
$$

ARZ022-023-033-042-044-030800-
CENTRAL ARKANSAS

CITY           SKY/WX    TMP DP  RH WIND       PRES   REMARKS
LITTLE ROCK    CLOUDY    35  32  88 CALM      30.19F FOG
N LITTLE ROCK    N/A     33  33 100 CALM      30.19F
JACKSONVILLE   CLOUDY    34  33  96 CALM      30.18F FOG
SEARCY         CLOUDY    34  32  92 CALM      30.21F
HOT SPRINGS    CLOUDY    34  34 100 SE3       30.16F FOG
RUSSELLVILLE   CLOUDY    54  32  43 E6        30.15F
CLINTON        CLOUDY    34  28  80 CALM      30.17F HAZE
$$

ARZ036-030800-
EAST ARKANSAS

CITY           SKY/WX    TMP DP  RH WIND       PRES   REMARKS
WEST MEMPHIS   CLOUDY    37  35  92 E7        30.16F FOG
$$

ARZ050-053-066-070-073-030800-
SOUTHWEST ARKANSAS

CITY           SKY/WX    TMP DP  RH WIND       PRES   REMARKS
ARKADELPHIA    CLOUDY    35  35 100 NE3       30.19F FOG
CAMDEN         CLOUDY    37  36  93 CALM      30.18F FOG
TEXARKANA      CLOUDY    36  36 100 CALM      30.16F FOG
EL DORADO      CLOUDY    37  37 100 CALM      30.18F FOG
DE QUEEN       FOG       37  36  96 E5        30.16F VSB 1
$$

ARZ056-057-069-030800-
SOUTHEAST ARKANSAS

CITY           SKY/WX    TMP DP  RH WIND       PRES   REMARKS
PINE BLUFF     FOG       35  35 100 CALM      30.18F VSB 1
STUTTGART      CLOUDY    36  34  93 N3        30.19F VSB 1/2
MONTICELLO     FOG       38  36  92 E3        30.17F VSB 1/4

$$




USA.gov is the U.S. government's official web portal to all federal, state and local government web resources and services.